Location: Grandview
(34.8900°N, 117.1058°W)
Time: 02:30:06
(UTC-08:00)

KKS-1 - Visible Passes

Search period start: 22 February 2018 00:00
Search period end: 04 March 2018 00:00
Orbit: 638 x 650 km, 98.3° (Epoch: 20 February)

Date Brightness Start Highest point End Pass type
(mag) Time Alt. Az. Time Alt. Az. Time Alt. Az.
22 Feb ? 03:53:09 10° SE 03:56:53 27° ENE 04:00:38 10° NNE visible
22 Feb ? 05:29:52 10° SSW 05:33:21 23° W 05:36:52 10° NW visible
23 Feb ? 04:17:09 10° SSE 04:21:26 51° ENE 04:25:46 10° N visible
23 Feb ? 05:56:38 10° WSW 05:58:14 12° W 05:59:51 10° WNW visible
24 Feb ? 04:41:39 10° S 04:46:05 82° WSW 04:50:34 10° NNW visible
24 Feb ? 18:12:44 10° NNW 18:16:27 26° WNW 18:20:08 10° SW visible
25 Feb ? 03:32:01 10° ESE 03:34:40 16° ENE 03:37:19 10° NNE visible
25 Feb ? 05:06:38 10° S 05:10:49 41° W 05:15:03 10° NNW visible
25 Feb ? 18:38:31 10° NNW 18:40:55 14° WNW 18:43:18 10° W visible
26 Feb ? 03:55:21 10° SE 03:59:09 28° ENE 04:02:57 10° NNE visible
26 Feb ? 05:32:12 10° SSW 05:35:37 22° W 05:39:05 10° NW visible
27 Feb ? 04:19:24 10° SSE 04:23:43 53° ENE 04:28:05 10° N visible
28 Feb ? 04:43:55 10° S 04:48:22 78° WSW 04:52:51 10° NNW visible
28 Feb ? 18:15:04 10° NNW 18:18:42 25° WNW 18:22:20 10° SW visible
01 Mar ? 03:34:10 10° ESE 03:36:55 16° ENE 03:39:41 10° NNE visible
01 Mar ? 05:08:56 10° SSW 05:13:05 39° W 05:17:18 10° NNW visible
01 Mar ? 18:40:55 10° NW 18:43:10 14° WNW 18:45:25 10° W visible
02 Mar ? 03:57:33 10° SE 04:01:24 29° ENE 04:05:16 10° N visible
02 Mar ? 05:34:33 10° SW 05:37:55 21° W 05:41:18 10° NW visible
03 Mar ? 04:21:37 10° SSE 04:25:58 56° ENE 04:30:22 10° N visible
